Weather History for Windsor Locks, CT

Change the Weather History Date:

Saturday, February 16, 2013

  Actual Average Record
Temperature  
Mean Temperature 34 °F 30 °F  
Max Temperature 39 °F 39 °F 72 °F (1954)
Min Temperature 28 °F 21 °F -24 °F (1943)
Degree Days  
Heating Degree Days 31 35  
Month to date heating degree days 595 586  
Since 1 July heating degree days 3753 4036  
Cooling Degree Days 0 0  
Month to date cooling degree days 0 0  
Year to date cooling degree days 0 0  
Moisture  
Dew Point 24 °F    
Average Humidity 65    
Maximum Humidity 92    
Minimum Humidity 37    
Precipitation  
Precipitation 0.06 in 0.10 in 1.11 in (1993)
Month to date precipitation 2.32 1.63  
Year to date precipitation 4.07 4.86  
Snow  
Snow 2.00 in 0.40 in 10.60 in (1958)
Month to date snowfall 24.9 6.9  
Since 1 July snowfall 46.6 28.6  
Snow Depth 11.00 in    
Sea Level Pressure  
Sea Level Pressure 29.91 in    
Wind  
Wind Speed 10 mph (NNW)    
Max Wind Speed 26 mph    
Max Gust Speed 36 mph    
Visibility 6 miles    
Events Snow    
T = Trace of Precipitation, MM = Missing Value Source: NWS Daily Summary

Daily Weather History Graph

Daily Weather History Graph

Search for Another Location

Airport:

Trip Planner

Search our weather history database for the weather conditions in past years. The results will help you decide how hot, cold, wet, or windy it might be!

Date:

Astronomy

Feb. 16, 2013 Rise Set
Actual Time 6:44 AM EST 5:25 PM EST
Civil Twilight 6:16 AM EST 5:53 PM EST
Nautical Twilight 5:43 AM EST 6:26 PM EST
Astronomical Twilight 5:11 AM EST 6:58 PM EST
Moon 9:48 AM EST (2/16) No Moon Set
Length of Visible Light 11h 37m
Length of Day
10h 40m
Waxing Crescent, 39% of the Moon is Illuminated
Feb 16
Waxing Crescent
Feb 17
First Quarter
Feb 25
Full
Mar 4
Last Quarter
Mar 11
New

Hourly Weather History & Observations

Time (EST) Temp. Windchill Dew Point Humidity Pressure Visibility Wind Dir Wind Speed Gust Speed Precip Events Conditions
12:51 AM 39.0 °F 30.6 °F 25.0 °F 57% 29.94 in 9.0 mi NW 15.0 mph 21.9 mph N/A   Overcast
1:51 AM 36.0 °F 28.0 °F 28.0 °F 73% 29.96 in 5.0 mi NW 11.5 mph - 0.00 in Snow Light Snow
2:13 AM 33.8 °F 25.3 °F 30.2 °F 87% 29.96 in 1.5 mi NNW 11.5 mph - 0.00 in Snow Light Snow
2:48 AM 33.8 °F 28.6 °F 30.2 °F 87% 29.96 in 1.0 mi NNW 5.8 mph - 0.01 in Snow Light Snow
2:51 AM 33.1 °F 27.7 °F 30.9 °F 92% 29.97 in 1.0 mi NNW 5.8 mph - 0.01 in Snow Light Snow
3:03 AM 33.8 °F 26.4 °F 30.2 °F 87% 29.95 in 1.2 mi North 9.2 mph - 0.00 in Snow Light Snow
3:51 AM 32.0 °F 23.6 °F 28.9 °F 88% 29.95 in 2.0 mi North 10.4 mph - 0.01 in Snow Light Snow
4:13 AM 32.0 °F 24.8 °F 28.4 °F 87% 29.95 in 1.8 mi North 8.1 mph - 0.00 in Snow Light Snow
4:27 AM 32.0 °F 25.6 °F 30.2 °F 93% 29.95 in 1.8 mi North 6.9 mph - 0.01 in Snow Light Snow
4:46 AM 32.0 °F 23.6 °F 30.2 °F 93% 29.94 in 1.5 mi NNW 10.4 mph - 0.02 in Snow Light Snow
4:51 AM 32.0 °F 24.2 °F 28.9 °F 88% 29.95 in 1.5 mi NNW 9.2 mph - 0.02 in Snow Light Snow
4:57 AM 32.0 °F 24.2 °F 28.4 °F 87% 29.94 in 1.5 mi NNW 9.2 mph - 0.01 in Snow Light Snow
5:15 AM 30.2 °F 21.9 °F 28.4 °F 93% 29.94 in 1.5 mi NNW 9.2 mph - 0.01 in Snow Light Snow
5:51 AM 30.9 °F 27.5 °F 28.9 °F 92% 29.94 in 1.5 mi North 3.5 mph - 0.01 in Snow Light Snow
6:08 AM 30.2 °F 26.7 °F 28.4 °F 93% 29.94 in 1.5 mi NNW 3.5 mph - 0.00 in Snow Light Snow
6:36 AM 30.2 °F - 28.4 °F 93% 29.94 in 5.0 mi Calm Calm - 0.00 in Snow Light Snow
6:51 AM 30.9 °F 27.5 °F 28.9 °F 92% 29.95 in 8.0 mi NNW 3.5 mph - 0.00 in Snow Light Snow
7:18 AM 30.2 °F 25.4 °F 28.4 °F 93% 29.96 in 6.0 mi WNW 4.6 mph - 0.00 in Snow Light Snow
7:34 AM 30.2 °F 24.3 °F 28.4 °F 93% 29.96 in 2.0 mi NW 5.8 mph - 0.00 in Snow Light Snow
7:51 AM 30.9 °F 27.5 °F 28.9 °F 92% 29.96 in 2.0 mi NNW 3.5 mph - 0.00 in Snow Light Snow
8:41 AM 30.2 °F 24.3 °F 26.6 °F 86% 29.95 in 4.0 mi NNW 5.8 mph - 0.01 in Snow Light Snow
8:51 AM 30.9 °F 26.2 °F 28.0 °F 89% 29.95 in 10.0 mi NNW 4.6 mph - 0.01 in   Overcast
9:51 AM 32.0 °F 24.2 °F 24.1 °F 73% 29.95 in 10.0 mi NW 9.2 mph - N/A   Overcast
10:51 AM 33.1 °F 26.1 °F 21.0 °F 61% 29.93 in 10.0 mi NW 8.1 mph - N/A   Mostly Cloudy
11:51 AM 35.1 °F 28.6 °F 18.0 °F 50% 29.91 in 10.0 mi NNW 8.1 mph - N/A   Mostly Cloudy
12:51 PM 35.1 °F 27.9 °F 19.9 °F 54% 29.89 in 10.0 mi NNE 9.2 mph - N/A   Mostly Cloudy
1:51 PM 37.0 °F 32.4 °F 19.9 °F 50% 29.87 in 10.0 mi NE 5.8 mph - N/A   Mostly Cloudy
2:51 PM 37.9 °F 32.1 °F 14.0 °F 38% 29.86 in 10.0 mi NNW 8.1 mph - N/A   Mostly Cloudy
3:51 PM 37.0 °F 29.3 °F 14.0 °F 39% 29.83 in 10.0 mi North 11.5 mph - N/A   Mostly Cloudy
4:51 PM 36.0 °F 29.6 °F 16.0 °F 44% 29.84 in 10.0 mi NW 8.1 mph - N/A   Overcast
5:51 PM 35.1 °F 29.3 °F 15.1 °F 44% 29.83 in 10.0 mi NNW 6.9 mph - N/A   Overcast
6:51 PM 34.0 °F 26.6 °F 15.1 °F 46% 29.83 in 10.0 mi NNW 9.2 mph - N/A   Overcast
7:51 PM 33.1 °F 25.5 °F 15.1 °F 48% 29.82 in 10.0 mi NNW 9.2 mph - N/A   Overcast
8:51 PM 32.0 °F 22.5 °F 18.0 °F 56% 29.82 in 10.0 mi North 12.7 mph - N/A   Overcast
9:51 PM 30.0 °F 18.3 °F 19.0 °F 64% 29.80 in 10.0 mi North 17.3 mph - N/A   Overcast
10:51 PM 30.0 °F 19.5 °F 17.1 °F 59% 29.76 in 9.0 mi North 13.8 mph - 0.00 in Snow Light Snow
11:51 PM 28.0 °F 13.0 °F 14.0 °F 56% 29.72 in 8.0 mi NNE 26.5 mph 33.4 mph 0.00 in Snow Light Snow